Theta_e
311 312 312 313 314 314 314 313 313 312 311 310 311 313 314 315 316 318 318 318 318 318 319 323 326 327 326 324 323 324 324 326 328 328 328 325 320 322 329 333 334 335 335 335 332 322 314 316 314 314 318 318 323 326 324 326 328 334 341 339 337 339 340 337 337 333 329 328 323 320 320 322 323 320 319 321 329 334 330 334 336 333 333 331 330 329 330 332
310 311 312 312 312 313 314 314 312 312 311 311 311 312 313 314 315 317 318 318 318 318 318 321 326 327 327 325 324 324 325 327 328 328 327 320 320 324 327 331 334 335 335 335 334 323 315 317 313 318 326 321 325 326 327 328 326 339 343 338 339 342 340 336 337 333 325 324 323 321 320 320 323 323 321 323 331 332 331 332 335 339 337 333 330 330 331 329
311 311 311 311 311 312 313 313 311 311 310 310 311 312 313 314 315 317 318 318 318 318 318 319 324 327 327 325 324 324 325 328 329 327 325 320 321 323 324 329 333 334 335 334 334 322 315 318 313 321 328 323 329 329 330 330 326 338 340 339 344 342 337 333 333 333 326 322 321 321 319 319 322 323 321 326 332 330 333 333 332 340 343 343 334 327 330 328
311 311 311 311 311 310 311 311 310 310 309 309 311 312 313 313 314 316 317 318 318 318 318 318 322 326 328 325 324 326 325 328 329 326 322 320 321 321 321 328 332 332 334 333 333 324 315 315 314 324 327 323 334 331 331 333 327 333 335 342 347 336 334 336 333 332 325 319 319 323 321 319 321 321 322 328 332 331 333 331 331 338 344 349 335 326 330 328
312 311 311 310 310 310 310 310 310 309 308 308 311 312 312 313 314 316 317 318 318 318 318 318 319 324 328 325 326 326 324 326 327 322 320 319 319 320 319 325 332 332 332 332 332 326 317 315 318 327 328 325 333 331 334 334 327 332 333 340 346 334 333 339 337 330 320 317 319 322 320 319 320 319 324 330 331 332 332 328 331 331 337 348 337 328 328 327
312 311 311 310 309 310 309 310 309 308 308 308 311 312 312 312 313 315 317 317 318 318 318 319 319 323 326 325 327 325 322 325 325 321 322 321 318 318 318 322 330 331 331 332 329 322 318 319 318 324 329 326 330 332 336 332 325 331 331 333 340 336 335 334 332 327 321 319 320 320 318 319 321 320 325 330 329 331 331 327 327 325 329 336 332 328 329 329
312 311 311 310 309 309 309 309 308 308 308 308 311 312 312 313 313 316 317 317 318 318 318 319 319 322 325 326 327 325 322 323 321 321 323 322 321 319 318 319 325 330 330 328 323 320 322 324 321 325 330 326 329 332 335 332 326 329 331 332 334 334 337 331 325 324 323 324 322 318 316 319 324 322 321 324 327 328 322 318 317 320 325 328 329 330 330 329
312 311 311 310 309 309 309 309 308 307 307 307 310 312 313 313 314 316 316 317 317 317 318 318 319 322 326 326 326 327 325 323 319 322 323 323 324 322 319 318 323 329 329 326 323 321 322 324 321 323 327 326 329 330 330 330 329 329 332 336 333 331 339 335 330 328 324 323 319 316 316 321 324 319 317 322 326 323 321 324 325 326 329 330 333 332 329 329
312 312 311 310 310 309 307 308 309 307 307 307 310 312 313 314 314 316 316 316 317 317 318 318 318 321 326 324 325 328 327 324 320 321 321 323 326 324 321 320 325 329 327 327 326 321 320 323 322 323 326 327 328 329 330 329 331 334 332 336 335 333 337 333 333 335 329 323 318 319 323 322 319 316 317 321 323 323 328 343 343 336 338 335 334 332 329 330
312 311 312 310 309 308 306 308 309 307 307 308 309 311 313 314 315 315 316 316 317 317 318 319 319 320 324 323 325 329 327 324 322 321 321 322 326 327 324 323 327 329 326 324 322 319 320 322 321 323 327 327 325 327 333 330 329 334 331 332 332 332 334 330 332 332 326 323 320 323 330 325 317 316 321 320 320 323 334 350 343 340 346 337 332 331 327 329
312 311 312 311 309 308 306 307 308 307 307 308 309 310 312 314 315 315 316 316 317 317 317 319 319 319 323 323 326 329 325 324 324 322 322 322 325 329 327 327 327 328 326 320 319 319 319 319 317 320 322 323 326 326 332 332 328 332 330 329 332 332 331 328 332 330 323 324 321 322 326 321 316 317 321 321 319 320 332 352 346 342 344 335 332 331 327 327
312 311 311 311 309 308 306 306 308 307 307 308 309 310 312 313 314 314 315 316 317 317 317 319 318 318 322 323 325 326 323 324 324 323 323 322 325 328 328 328 328 328 327 320 318 318 318 318 317 320 321 323 327 326 330 331 328 332 329 330 335 333 331 331 332 327 324 325 320 319 323 320 318 318 320 321 319 317 324 343 348 344 340 334 333 331 329 328
311 310 311 311 310 308 306 306 308 307 307 307 308 310 312 312 313 314 315 316 317 317 317 318 318 319 322 324 323 323 322 323 324 324 325 323 324 329 329 329 328 327 327 322 318 318 319 319 319 321 324 328 330 325 326 328 327 331 330 330 333 332 334 335 330 324 323 324 319 322 330 329 323 319 319 321 320 318 320 327 336 341 338 334 332 331 331 328
310 310 311 310 310 308 306 306 307 307 307 308 308 310 312 312 313 313 315 317 317 317 318 319 320 320 321 322 322 322 323 322 323 325 325 324 325 329 329 328 327 325 323 322 320 320 321 321 321 321 325 330 329 324 327 330 329 330 330 330 331 331 336 337 329 326 326 323 318 325 331 332 330 323 320 321 320 320 322 321 323 329 332 331 331 331 331 329
310 311 311 310 310 309 306 305 306 306 308 308 308 309 311 312 313 313 315 317 317 317 318 319 319 319 319 319 319 320 321 322 323 324 324 325 325 326 327 327 326 323 321 320 320 322 322 322 324 327 329 327 326 329 333 334 333 333 332 333 334 331 335 338 331 326 330 325 318 324 331 331 331 327 325 323 320 321 324 324 322 322 323 325 328 328 329 329
310 311 311 310 310 308 307 305 305 307 308 309 308 308 311 312 312 313 315 317 317 317 317 319 319 318 319 320 319 320 321 321 322 323 324 325 324 324 325 325 323 322 321 321 321 321 320 322 326 329 331 328 331 336 336 333 334 334 332 334 337 333 332 337 332 325 330 329 321 323 330 334 332 329 331 327 321 322 324 325 324 323 320 319 321 323 326 327
310 311 311 310 310 308 307 306 305 307 309 309 308 309 311 312 312 313 315 315 315 317 316 317 319 317 318 318 319 321 321 321 322 323 324 325 324 324 323 322 321 321 322 321 321 321 320 323 324 325 329 333 336 336 335 334 333 332 332 333 336 335 333 335 333 327 327 329 327 324 325 330 332 331 333 329 322 322 323 323 323 323 323 320 318 318 319 322
310 311 310 310 309 308 307 306 306 308 309 309 309 311 312 313 313 313 315 314 313 315 315 315 317 318 318 317 318 322 321 321 322 322 323 323 323 324 322 321 320 321 322 322 323 323 323 324 323 325 330 332 333 333 332 334 333 331 332 332 334 336 335 334 335 333 327 327 329 328 325 324 325 327 331 331 327 325 324 323 323 323 323 322 320 318 316 316
310 310 310 310 309 308 307 306 306 308 309 309 310 312 313 313 313 313 313 313 314 316 317 316 317 319 319 317 317 320 320 321 322 322 321 321 321 322 321 321 321 322 324 325 325 324 325 326 326 328 329 326 328 330 330 333 333 332 331 332 334 334 334 333 334 334 330 329 329 328 328 327 324 325 326 329 328 328 328 326 325 325 324 323 322 321 319 317
309 310 310 309 309 308 307 307 306 308 309 311 312 312 313 313 312 312 312 312 315 316 318 318 316 318 320 318 317 318 320 320 322 321 320 320 320 320 320 320 322 323 325 327 326 323 324 328 330 329 328 325 325 326 327 331 333 333 332 332 333 333 333 332 332 334 330 330 333 329 328 328 328 327 326 326 326 327 328 327 326 326 325 325 324 324 322 321
309 309 310 310 309 308 307 307 307 309 310 311 312 311 312 313 311 313 313 313 314 313 314 316 316 317 316 314 315 318 320 321 321 321 320 319 319 321 322 321 324 326 325 326 325 323 324 330 330 328 327 326 325 325 326 328 330 334 334 332 332 332 333 332 333 335 330 329 335 333 331 329 327 328 327 326 327 326 325 326 325 325 325 325 326 326 325 324
309 310 310 310 309 308 308 307 307 310 310 311 312 311 311 311 311 312 313 314 314 311 311 315 316 316 312 310 313 316 321 323 322 321 319 318 321 323 323 321 324 326 324 324 325 325 327 329 328 325 325 326 326 326 326 327 328 333 335 335 335 333 334 334 332 334 330 329 337 337 333 331 328 328 328 327 327 327 325 325 325 325 325 325 326 326 325 326
310 310 310 309 309 308 308 307 307 310 311 311 312 311 310 311 311 311 313 315 315 312 311 314 316 316 313 312 313 314 320 324 323 322 318 318 322 323 323 321 323 325 324 324 326 327 328 327 324 324 325 325 326 326 327 328 328 330 333 335 336 336 335 335 334 334 330 330 336 337 333 331 330 329 329 328 328 328 327 326 326 326 326 326 327 326 326 326
309 309 309 309 309 308 308 308 309 311 311 311 311 311 310 311 311 312 313 314 314 313 312 313 314 314 314 314 313 315 319 322 323 323 318 319 322 323 323 322 323 325 325 324 325 326 327 325 323 323 324 323 326 328 328 329 329 330 331 333 335 336 335 335 333 331 330 329 330 332 334 333 331 331 330 329 329 328 328 328 327 326 326 326 326 326 326 326
309 309 309 309 308 308 308 309 310 311 311 311 311 310 310 311 311 312 313 312 313 312 311 312 312 312 313 313 313 316 318 320 321 321 318 319 321 323 324 322 323 326 325 324 325 326 325 324 323 323 324 324 325 328 328 329 330 330 330 330 333 335 335 335 333 331 335 336 330 332 338 338 334 334 332 331 331 329 327 327 327 327 326 326 326 326 325 325
309 309 309 309 308 308 309 309 310 310 311 311 311 310 311 312 311 311 312 312 313 311 311 313 313 314 314 313 313 315 319 320 317 316 318 319 319 321 324 324 324 325 324 323 325 326 324 324 325 325 325 325 326 326 327 328 330 331 331 330 331 334 336 336 336 336 339 339 333 332 337 339 336 333 332 333 333 331 330 328 327 326 326 326 326 325 325 325
309 309 309 309 308 309 309 310 310 310 311 311 310 310 311 311 311 311 312 312 313 312 312 313 313 314 314 313 313 315 319 318 314 314 316 317 318 320 323 325 326 325 323 323 326 326 324 325 326 326 325 326 326 325 326 327 329 331 332 331 331 333 336 336 337 338 336 335 335 332 333 336 335 332 330 331 332 331 332 329 327 326 325 326 326 325 325 325
308 309 309 308 308 308 308 309 310 309 310 310 310 310 310 310 310 310 312 314 314 313 313 313 312 312 313 313 313 316 319 317 318 317 313 314 318 320 323 325 326 326 323 324 328 326 323 324 325 325 325 325 325 324 325 326 328 331 333 332 331 332 334 334 335 336 332 333 337 334 333 336 336 334 332 331 331 330 330 329 328 328 326 325 325 324 325 325
309 309 308 307 308 308 308 309 309 309 309 309 310 310 309 309 309 310 312 314 314 313 313 314 312 312 313 313 313 317 319 317 318 316 312 314 316 317 321 322 323 326 324 324 326 324 323 323 323 324 325 325 326 327 327 327 327 330 332 331 332 332 333 334 334 333 330 332 337 335 334 337 337 335 335 333 332 329 329 329 327 327 327 326 324 324 324 323
309 309 307 307 309 309 309 309 308 309 309 309 310 309 307 307 309 312 313 313 314 313 312 314 313 313 314 315 315 316 317 316 315 313 313 316 316 315 318 319 321 325 325 324 325 324 323 321 321 323 323 324 327 329 328 326 327 329 331 331 332 331 332 333 332 331 332 334 335 333 332 335 336 335 333 333 333 331 331 331 328 328 329 328 325 323 323 322
309 308 307 307 309 309 309 309 309 309 309 309 309 308 307 308 310 312 313 314 315 313 312 314 314 314 316 316 317 316 316 316 314 314 316 317 317 318 319 320 322 325 325 326 325 325 324 323 322 323 322 323 326 327 326 326 328 330 333 333 331 330 330 331 331 331 335 337 332 329 330 333 335 335 332 331 331 332 333 331 331 331 330 329 326 324 322 322
309 308 307 308 309 309 308 309 309 309 309 310 308 308 308 309 310 311 313 315 315 313 314 315 315 316 316 316 316 316 316 315 314 315 317 317 319 319 319 321 322 325 327 326 325 326 326 324 323 322 321 322 324 326 326 327 328 329 332 332 330 331 332 332 333 334 335 334 330 330 330 331 331 331 330 330 331 336 336 333 331 331 331 329 327 325 323 322
309 307 307 309 309 308 308 308 309 308 308 308 308 308 309 310 310 310 313 314 313 312 314 314 314 316 315 315 316 316 316 316 314 315 316 317 318 319 319 318 317 318 323 325 325 326 327 325 323 323 322 322 322 325 327 327 328 328 330 330 328 331 333 331 331 335 334 330 330 331 329 329 330 325 325 325 326 333 337 336 334 332 332 332 329 326 325 325
307 307 308 309 308 308 308 308 309 308 307 307 309 309 309 311 312 311 312 311 309 311 314 314 315 316 315 315 316 315 316 316 315 315 316 316 317 318 318 317 315 314 317 322 325 325 328 328 325 324 323 322 322 323 325 326 327 327 327 327 326 327 329 328 327 331 331 328 329 329 328 330 329 325 327 327 327 329 330 332 332 330 330 331 329 328 328 328
307 307 309 309 308 308 308 308 308 307 306 307 309 310 310 311 311 312 311 309 307 311 314 314 315 316 316 315 315 315 316 316 315 315 315 316 317 318 316 315 314 313 314 321 324 324 327 328 326 324 322 321 321 322 322 325 327 327 326 327 327 325 324 325 327 327 329 330 328 327 330 331 326 322 327 328 327 328 326 326 326 326 330 332 330 330 329 328
308 309 309 309 309 308 308 308 307 305 306 307 309 311 311 311 311 312 311 310 311 312 314 315 315 316 316 314 315 315 314 314 315 316 315 315 316 316 316 315 313 313 315 319 322 323 326 328 325 324 323 321 320 322 321 323 326 327 327 328 326 324 324 326 326 325 328 330 328 326 328 328 323 321 323 322 323 327 328 327 325 327 332 333 332 331 328 327
308 309 308 308 309 308 308 308 306 305 307 308 309 310 311 311 311 311 311 311 312 312 313 316 315 315 316 315 315 315 314 314 315 316 315 315 316 316 317 316 313 313 315 316 318 318 323 329 326 323 325 323 319 321 321 321 324 326 327 326 324 326 328 327 326 326 328 328 326 327 326 324 323 323 323 323 321 322 328 330 327 327 329 329 330 330 328 328
307 308 308 308 308 308 307 307 306 306 307 308 310 311 311 310 308 309 311 311 311 311 313 315 315 314 315 314 315 314 314 314 315 315 315 315 316 316 315 315 313 313 314 315 316 315 318 328 327 323 325 324 321 323 324 324 325 325 325 324 324 326 327 327 327 325 326 325 323 324 323 321 321 320 322 326 325 321 323 328 328 327 327 327 327 328 327 326
307 307 308 308 308 307 307 307 306 307 307 308 310 310 309 308 306 308 311 310 310 311 312 314 314 314 314 313 314 314 313 314 315 315 315 314 316 316 315 315 314 313 314 314 315 314 315 323 326 324 324 324 323 325 326 327 326 326 326 325 324 325 325 325 325 322 323 324 321 321 321 319 319 316 317 325 330 328 324 325 327 327 326 326 326 327 327 326
306 307 307 307 307 307 307 307 307 308 309 309 310 309 307 306 305 307 310 310 310 309 311 314 313 313 314 313 313 314 313 314 315 315 314 314 315 316 314 314 314 313 313 314 314 315 315 318 323 324 323 325 326 326 326 327 326 326 327 327 326 327 327 326 324 322 323 322 321 321 320 318 318 317 316 319 325 329 330 328 326 326 326 324 324 325 326 327
306 307 306 305 306 306 306 307 306 308 309 309 310 308 306 305 306 308 309 310 310 308 309 314 313 312 313 313 313 314 313 314 315 314 314 313 314 315 314 313 314 313 313 314 314 316 317 316 319 323 323 325 327 323 320 321 324 326 326 327 327 326 327 327 326 325 323 322 323 322 319 320 323 324 320 317 320 323 327 328 323 323 324 322 322 323 323 326
306 306 304 302 305 306 306 306 305 306 308 309 308 307 305 305 306 308 308 308 311 309 309 312 313 312 312 312 312 313 313 313 314 313 314 314 313 315 314 312 313 312 312 314 313 314 317 316 318 321 321 322 322 317 314 315 318 321 322 324 325 325 325 325 326 326 324 324 324 321 321 320 323 329 325 320 320 319 320 324 323 323 322 321 322 322 322 324
305 304 301 301 304 305 306 306 305 306 307 306 305 306 305 305 306 307 307 308 310 309 310 312 312 311 312 312 312 312 312 313 313 313 313 313 312 314 313 311 311 312 312 313 312 313 316 317 318 320 319 319 319 315 313 313 313 317 320 322 324 325 324 323 324 325 324 324 324 323 324 320 320 333 332 322 320 318 317 319 322 323 323 322 322 322 322 322
302 301 300 301 303 305 307 307 306 306 305 304 305 304 303 304 306 307 307 307 308 309 311 312 310 310 312 311 311 311 312 312 312 312 313 313 312 311 312 311 311 312 312 314 314 314 317 318 318 320 321 320 320 318 316 314 313 316 318 320 322 324 324 324 324 324 324 325 324 324 325 320 320 330 330 324 323 320 318 320 321 322 323 321 321 321 321 320
302 301 301 300 300 303 306 305 306 306 304 304 306 305 303 304 305 306 307 306 306 308 311 309 308 311 312 310 310 310 311 311 312 312 313 314 312 309 310 311 311 312 313 314 315 315 317 317 317 320 321 321 322 322 320 318 316 315 316 317 320 322 324 325 325 325 324 325 324 324 324 322 320 322 323 324 325 322 322 323 320 319 319 318 319 319 319 318
305 304 302 301 299 301 302 302 305 306 304 305 306 305 304 305 304 303 305 305 304 307 309 307 308 310 310 310 310 310 310 311 311 311 312 314 313 310 310 310 311 313 314 315 315 315 316 316 316 318 319 319 320 319 318 318 318 318 317 317 318 319 321 323 325 326 325 324 324 323 323 323 321 320 320 321 323 325 329 329 324 321 320 318 317 316 316 316
306 305 303 303 302 302 302 302 305 305 304 306 306 305 304 305 304 303 304 304 304 306 307 306 308 311 310 309 310 310 310 311 310 310 311 313 312 311 310 310 311 314 315 314 314 314 315 315 315 316 317 317 317 316 316 317 317 318 318 317 317 317 318 319 321 323 323 324 326 323 322 324 322 319 319 319 320 323 327 328 325 323 321 318 316 315 315 315
303 304 303 303 303 303 303 303 304 305 305 306 306 305 305 305 305 304 304 302 302 304 307 307 307 310 310 310 311 310 310 311 310 309 310 312 312 311 311 311 311 313 314 313 313 313 314 315 315 315 315 315 315 315 316 316 315 316 316 316 317 316 317 317 318 319 319 321 324 321 320 322 321 319 320 319 318 318 317 318 318 316 315 315 315 316 317 318
300 302 301 301 303 303 303 303 304 304 305 305 305 305 305 305 305 304 303 302 302 303 307 309 308 309 310 310 311 310 310 311 311 309 309 310 311 311 312 312 311 312 313 313 313 313 314 314 314 314 315 314 315 315 314 314 315 315 315 315 315 315 316 316 316 317 317 317 318 318 318 319 317 316 316 316 317 318 316 317 317 316 316 316 316 315 315 316
302 303 301 300 301 301 302 303 303 304 304 304 305 305 305 305 305 304 302 303 304 304 305 309 309 308 308 309 310 311 311 311 312 310 308 310 311 311 312 313 311 311 312 312 312 312 313 314 313 313 314 314 314 313 313 313 315 315 314 314 314 314 314 315 315 315 315 315 315 316 317 318 318 316 314 313 315 316 316 318 319 319 320 319 319 316 314 313
298 299 299 301 301 300 302 303 303 304 304 304 304 304 305 305 304 304 302 301 303 304 305 308 308 305 305 308 310 311 310 311 312 310 307 309 311 311 312 312 311 312 312 311 311 310 311 313 312 313 315 315 314 314 312 313 315 315 314 314 313 314 314 314 313 314 315 316 316 316 317 319 320 318 315 313 313 314 315 317 318 319 320 321 321 319 316 314
296 298 300 304 303 301 302 302 303 304 304 303 303 303 305 304 303 304 304 302 302 303 303 305 306 305 306 308 310 310 311 312 311 308 306 308 309 311 314 313 310 312 313 310 310 310 311 312 312 313 315 315 313 313 313 313 315 316 315 314 314 313 314 313 313 313 314 316 317 317 317 319 320 318 316 315 313 312 313 314 316 318 319 319 318 318 317 316
Wind_Speed
27 27 26 25 24 23 22 21 21 21 21 22 22 21 20 20 19 18 17 16 17 16 16 16 16 17 17 16 15 13 11 10 11 14 16 19 26 21 4 4 15 18 17 15 11 7 4 4 2 1 2 1 2 2 2 3 1 2 3 2 2 4 4 5 6 6 3 0 2 3 4 7 4 3 2 1 3 3 0 3 2 3 3 3 5 3 10 23
28 28 27 26 25 24 23 22 22 22 22 22 22 22 21 20 20 19 18 17 17 17 16 16 16 17 16 16 15 13 11 12 14 16 23 26 24 21 13 8 9 13 15 13 9 5 1 2 1 4 4 1 2 2 1 1 1 3 3 2 4 5 4 5 6 5 3 2 3 3 2 5 5 5 3 3 1 1 2 4 4 5 6 3 2 7 19 24
29 29 28 27 26 25 24 23 23 23 22 23 23 22 22 21 20 20 19 18 17 17 17 16 17 17 16 17 15 12 10 11 13 17 27 29 26 24 20 16 12 11 11 8 6 2 1 3 0 4 3 0 1 2 1 1 1 2 3 2 5 5 4 4 5 6 4 1 3 3 1 2 4 4 3 4 3 2 5 5 2 5 9 4 1 12 20 21
30 29 28 28 27 26 25 24 24 23 23 24 23 23 23 22 21 20 19 18 18 18 17 17 17 17 17 16 15 13 8 7 9 16 29 29 28 28 24 22 19 15 12 9 7 2 2 2 1 3 3 1 3 2 1 2 1 1 3 4 5 3 2 4 5 5 3 1 3 4 3 1 3 3 3 6 5 3 7 8 9 10 10 7 4 10 17 18
31 30 29 29 28 26 26 25 25 24 24 24 23 23 22 22 21 20 20 19 18 18 17 17 17 18 18 15 15 15 8 2 6 11 22 28 30 29 27 25 21 19 16 12 8 3 1 1 3 4 3 1 1 2 2 3 2 1 3 5 4 4 2 5 5 4 3 3 4 5 3 2 2 2 4 9 7 6 7 8 11 11 9 9 9 12 14 14
33 31 29 29 28 27 26 26 25 25 24 24 23 23 22 23 22 21 20 19 19 18 18 18 17 18 19 16 16 18 11 3 3 1 7 17 29 29 27 27 23 19 16 13 7 5 3 2 2 3 2 1 3 3 4 2 2 2 3 2 4 4 3 3 2 3 4 6 3 3 2 2 3 2 4 8 8 7 6 6 8 8 8 10 11 13 13 12
34 33 31 29 28 28 26 26 26 25 25 24 23 22 22 22 22 21 20 20 19 18 19 18 18 18 18 18 18 16 11 7 3 2 8 5 23 29 27 28 26 20 16 14 10 6 5 5 2 3 4 2 4 5 4 0 2 2 3 3 4 3 4 3 2 1 4 4 3 3 0 1 5 3 1 5 10 9 5 3 4 5 11 12 10 12 13 14
35 34 32 30 28 28 27 27 26 25 25 24 24 23 22 22 22 21 20 21 19 19 19 18 19 17 19 20 15 9 8 14 14 5 8 8 13 26 27 28 27 22 19 18 15 10 6 8 7 3 3 3 5 4 3 1 1 3 5 3 2 2 5 4 0 0 0 2 1 2 1 5 7 2 0 6 11 9 4 1 3 6 10 10 10 12 12 13
36 35 33 31 29 28 28 27 26 26 25 24 24 22 22 21 21 21 20 21 19 20 19 19 19 16 21 18 8 7 10 23 28 18 9 7 6 22 27 30 29 24 20 19 19 15 8 7 8 5 4 5 5 4 3 3 3 6 7 4 2 3 4 3 3 3 2 3 1 1 5 7 3 1 4 9 10 6 4 5 5 7 7 8 10 11 12 11
37 35 33 32 31 30 28 27 27 26 25 25 24 22 22 21 22 21 21 21 19 20 18 19 19 15 21 14 6 9 8 20 32 26 18 7 5 21 27 29 30 28 21 18 19 17 9 8 8 5 4 3 4 4 4 5 4 4 5 4 4 5 3 1 2 4 2 2 3 4 8 7 2 1 4 6 7 5 7 5 5 7 8 9 8 9 11 11
37 36 33 32 32 30 29 28 28 27 26 25 24 23 22 21 21 21 20 21 19 20 18 18 18 17 19 10 7 8 4 15 28 29 26 11 8 22 28 28 29 29 22 16 18 20 14 11 11 6 1 3 4 2 2 5 2 2 4 2 6 6 4 2 3 4 1 2 5 7 6 4 2 3 6 1 3 7 8 6 6 7 7 8 8 7 8 11
37 37 34 33 31 31 29 28 28 28 27 25 24 23 22 21 21 20 20 20 19 19 18 18 18 18 14 6 8 7 6 13 21 26 28 16 10 20 28 29 28 29 25 16 15 21 18 13 14 7 4 4 4 1 3 4 2 2 4 2 7 5 5 6 4 3 4 2 5 6 4 4 3 10 8 3 4 6 7 7 6 7 7 6 8 7 7 12
39 38 35 33 31 31 30 28 28 28 27 25 24 22 21 22 21 20 20 19 19 18 17 17 17 17 11 5 7 10 12 13 15 21 22 16 12 17 27 28 24 24 23 18 17 20 18 16 15 8 3 5 3 2 1 2 2 1 2 2 5 5 5 7 4 3 5 4 5 5 5 5 7 14 10 3 5 7 5 7 6 6 7 6 7 6 8 11
40 38 36 34 32 32 30 29 29 28 27 25 25 23 21 21 20 20 20 19 18 17 16 15 16 14 9 6 4 10 18 12 11 19 19 17 15 16 22 23 21 20 16 15 16 18 16 15 13 6 2 2 2 1 3 2 1 1 1 1 3 5 4 5 4 7 6 4 5 6 6 6 9 12 8 5 5 8 7 8 8 7 7 7 6 7 8 10
40 38 36 35 33 32 31 29 29 28 27 25 25 23 21 20 20 19 19 18 17 17 15 14 16 10 3 8 6 10 19 12 12 21 22 22 19 14 16 21 20 17 13 11 15 16 14 14 9 5 1 0 2 3 2 2 1 1 3 2 2 5 4 5 3 9 9 3 4 7 5 7 11 11 7 7 6 7 9 9 8 8 8 8 7 8 8 9
40 39 36 35 33 32 31 29 29 29 26 24 24 22 20 19 19 18 19 18 15 17 15 12 18 13 1 4 5 8 13 11 14 20 22 26 22 16 17 19 16 15 12 11 15 13 10 9 4 3 3 1 4 4 3 1 3 3 5 4 2 4 4 4 4 7 10 4 3 8 6 5 7 8 6 6 7 7 9 10 10 9 8 8 7 7 8 8
40 38 37 36 34 31 30 29 29 28 26 24 22 21 20 18 18 17 17 18 14 16 16 10 16 13 4 2 5 6 9 12 18 19 20 24 23 21 21 13 9 13 12 10 14 10 5 4 1 1 2 2 4 5 4 8 9 5 3 5 3 3 4 3 3 4 7 6 6 9 9 9 8 4 5 3 5 7 9 12 11 8 7 7 7 7 8 8
40 38 37 36 34 32 30 29 28 27 25 23 21 19 18 16 17 15 13 15 11 12 14 8 12 9 7 9 7 5 12 17 20 19 19 19 21 26 23 13 10 14 11 6 8 6 2 2 2 3 2 3 5 7 11 10 7 8 6 5 3 1 5 6 4 4 6 6 7 7 8 13 13 7 5 4 3 6 10 11 8 8 8 7 7 7 8 9
40 38 38 37 35 33 30 29 28 28 25 22 21 18 15 11 10 11 10 10 7 6 7 6 11 7 5 10 9 3 11 19 19 18 18 17 19 24 21 17 14 13 9 4 5 6 4 3 3 5 7 11 11 12 14 5 3 9 8 5 5 4 6 6 5 4 7 6 7 9 9 13 15 11 8 7 4 7 8 8 6 7 8 7 7 7 9 10
41 38 38 37 35 33 30 29 28 28 25 22 22 16 9 7 4 6 7 7 9 6 1 7 15 6 5 2 8 8 9 13 10 11 18 19 20 19 11 11 11 8 8 7 5 5 5 5 6 11 15 16 16 15 13 6 2 4 7 7 9 9 7 6 5 4 6 7 7 10 11 14 16 11 9 9 7 7 8 9 9 9 9 9 9 10 11 12
42 39 37 37 35 33 30 29 28 28 26 25 24 12 4 10 7 5 6 4 11 10 4 4 16 7 4 2 7 12 8 5 3 8 19 21 20 16 5 7 10 7 9 10 6 4 5 8 12 18 17 14 15 15 13 12 5 2 3 6 8 9 7 6 7 4 5 5 5 6 9 13 16 12 10 9 9 10 12 12 13 14 14 11 11 15 14 12
41 38 38 37 34 33 30 29 28 28 27 26 24 10 6 15 8 1 8 3 7 10 4 2 12 7 1 3 3 8 5 6 7 8 17 20 16 13 7 9 12 10 10 9 7 4 5 11 20 18 12 9 12 13 12 13 9 2 1 3 4 5 3 3 4 3 4 4 4 6 7 11 15 13 11 11 10 11 13 14 15 16 16 14 13 15 14 13
41 39 38 37 34 33 29 29 29 26 26 26 26 15 8 18 13 2 8 3 2 6 2 3 10 8 3 1 4 6 3 7 8 8 18 19 12 11 11 11 13 12 12 12 10 9 8 14 17 10 9 13 12 10 10 8 7 7 5 4 3 3 3 3 3 3 4 3 2 5 7 8 11 11 10 11 11 12 13 14 15 15 14 16 16 14 14 15
41 40 38 37 34 31 28 28 27 26 29 29 29 23 10 14 18 8 4 1 2 4 3 4 5 6 5 3 8 9 4 4 4 9 18 17 9 9 12 12 14 11 10 15 16 14 13 9 7 10 12 15 10 7 10 8 8 11 10 9 5 3 4 3 1 2 1 2 1 3 8 8 9 13 12 9 10 13 14 13 13 14 14 16 16 15 15 15
41 40 38 37 34 32 30 26 24 27 30 26 27 26 15 11 17 14 3 2 3 1 2 5 1 5 8 5 9 9 3 3 3 7 16 17 10 7 9 9 10 12 13 16 15 13 15 6 11 15 12 10 10 9 13 12 9 10 13 13 8 5 4 3 3 1 2 3 2 2 7 7 5 12 13 7 8 11 12 12 14 15 14 14 15 15 16 16
42 40 38 37 33 33 27 16 21 29 24 20 25 26 20 12 14 15 5 2 3 2 5 8 4 9 13 7 6 5 3 5 1 6 16 18 11 2 6 7 4 11 16 14 9 6 9 8 11 13 9 12 13 11 14 14 9 9 9 12 10 6 4 4 5 3 0 5 3 2 6 7 4 10 11 6 7 10 10 11 13 14 13 13 14 15 15 15
42 40 39 37 34 35 23 10 21 27 14 15 25 27 23 17 14 13 5 4 4 4 6 7 5 12 14 9 11 8 5 4 3 3 9 14 11 1 4 10 7 9 11 8 6 5 10 12 11 12 12 13 13 12 15 16 11 6 6 13 13 7 5 4 5 3 1 3 4 2 3 6 11 12 11 10 10 10 11 13 13 13 13 14 15 16 15 14
42 41 41 37 37 39 25 14 23 21 10 13 23 27 25 20 15 10 3 6 4 5 6 5 5 10 9 9 15 9 3 5 6 3 2 9 12 2 4 11 12 14 14 12 11 9 14 17 16 17 15 12 12 11 11 14 10 5 6 13 13 9 5 3 4 2 1 3 5 5 2 6 13 7 6 10 13 14 14 15 16 14 13 14 15 16 14 15
43 42 41 38 37 37 26 19 22 18 12 17 23 28 26 20 13 5 4 5 1 2 3 7 7 7 7 8 13 9 0 3 4 2 3 5 6 2 2 6 8 13 16 15 15 10 10 16 18 17 13 9 7 6 11 15 11 4 6 8 8 8 6 3 3 2 1 1 9 10 5 5 13 4 6 7 10 14 12 12 15 13 12 13 13 15 15 14
43 41 41 39 36 34 26 19 21 20 17 22 28 30 25 16 7 3 8 5 2 0 2 7 8 9 13 11 9 11 6 2 2 3 3 2 4 3 0 0 3 6 9 13 14 7 4 8 11 11 10 7 8 8 12 16 10 7 6 6 5 3 3 2 2 2 0 4 14 18 11 8 12 5 6 6 5 7 7 7 10 10 11 12 12 14 15 14
43 41 41 40 36 35 24 12 20 27 24 28 34 29 18 7 2 6 8 1 3 3 3 5 8 12 18 15 10 12 9 2 4 6 3 2 5 5 1 1 3 4 6 9 10 6 3 6 6 6 8 8 9 6 5 9 12 9 6 6 4 1 2 2 1 3 5 9 15 17 11 10 13 8 4 2 2 3 6 8 9 10 12 12 11 12 13 13
43 41 42 40 35 34 23 13 25 32 31 36 31 17 8 4 4 6 4 3 1 5 5 8 10 11 17 18 13 13 11 4 4 7 6 5 6 7 7 6 2 3 6 7 9 9 6 6 7 8 9 12 12 5 2 5 10 8 6 8 7 3 3 5 5 5 8 11 7 3 6 10 15 13 5 6 5 3 5 7 8 11 11 12 11 11 11 10
42 40 41 37 33 32 24 20 29 33 37 38 22 7 6 6 6 8 5 2 1 3 5 8 10 11 16 17 11 12 12 6 6 5 4 6 7 8 11 9 3 1 3 8 10 8 6 6 8 8 8 12 15 10 6 8 10 11 10 10 9 6 6 8 8 5 7 11 4 6 3 5 10 12 9 13 14 10 9 8 9 10 11 11 10 8 7 7
41 40 37 34 31 30 25 24 31 35 36 28 12 7 9 6 5 9 9 3 2 1 4 7 10 11 14 12 9 12 10 6 9 8 4 6 6 7 9 9 6 2 2 6 7 8 10 8 9 12 9 13 17 14 12 10 10 12 9 8 9 7 7 8 7 7 7 8 2 4 2 4 6 5 3 6 8 6 9 8 6 7 8 8 8 6 6 7
39 37 34 30 27 29 29 28 35 41 30 15 6 6 8 8 4 6 8 4 2 1 4 7 9 10 10 7 6 11 6 2 10 8 4 7 6 8 8 8 10 5 1 4 3 7 12 7 10 15 12 17 19 13 11 10 7 7 5 7 10 9 8 4 3 6 5 3 3 4 4 4 7 8 3 3 4 3 3 4 3 6 7 7 8 8 8 8
35 32 28 24 24 29 31 30 38 40 23 9 7 6 5 7 4 3 6 5 4 5 9 7 6 6 7 4 4 9 2 2 9 8 4 7 6 8 7 4 10 10 5 3 1 3 8 5 10 15 11 18 21 15 15 13 8 6 7 9 9 7 6 2 2 2 3 3 5 5 6 6 8 14 13 13 12 6 4 4 5 8 9 9 9 9 9 8
30 25 19 18 24 29 32 36 40 33 16 6 7 7 5 5 4 4 4 5 6 9 10 7 6 6 7 4 5 11 6 2 8 8 4 5 6 7 8 4 8 13 10 5 2 1 3 2 7 14 13 17 18 15 15 13 9 8 10 10 4 2 2 2 3 1 2 5 5 6 12 10 7 11 6 6 14 14 10 8 9 9 10 10 10 10 11 11
26 20 12 15 26 29 33 41 37 22 8 4 7 8 4 4 4 4 3 5 8 8 8 6 5 7 8 6 6 10 10 6 8 8 6 5 5 8 11 6 6 12 12 7 1 2 0 1 2 11 14 12 11 12 11 10 7 5 7 10 7 3 5 5 4 4 4 6 6 9 14 11 10 12 6 2 8 11 11 10 8 8 9 8 9 12 14 13
20 11 5 14 27 29 36 40 28 12 4 4 9 9 4 3 4 4 5 7 7 6 7 4 2 5 7 7 8 9 10 9 8 7 6 5 4 7 12 7 4 11 13 11 6 2 1 1 1 5 8 9 9 9 9 9 6 2 2 8 6 5 7 8 8 7 7 8 8 10 12 8 10 14 12 6 6 7 9 8 8 10 11 10 11 12 14 14
11 4 2 14 26 31 38 32 14 6 5 4 6 5 3 2 3 4 7 8 4 3 5 3 3 7 8 7 8 8 7 8 8 7 5 7 5 4 7 8 7 10 12 11 7 2 1 1 1 2 2 8 8 8 11 14 12 6 5 9 9 5 2 4 7 6 6 8 8 9 11 9 7 8 9 9 9 10 11 11 12 13 13 14 14 14 14 14
5 4 2 10 27 35 32 17 4 5 5 3 3 2 3 3 1 3 7 5 3 1 2 3 5 7 7 7 8 8 6 5 7 6 4 7 7 4 4 9 12 12 9 7 7 5 2 2 2 0 1 5 5 3 4 7 9 9 9 10 12 11 6 6 8 8 6 6 6 7 12 11 5 4 7 10 10 11 12 13 13 13 15 15 13 13 13 13
4 6 1 5 27 34 19 4 2 4 3 4 4 3 3 3 2 4 5 2 3 2 1 2 3 4 4 5 6 8 7 5 7 7 6 7 8 5 5 8 13 15 10 5 5 4 2 2 2 2 2 4 3 3 4 2 1 2 5 6 9 10 9 9 10 8 8 8 6 6 12 11 4 3 5 6 7 8 10 11 9 10 12 12 11 10 10 11
3 5 4 2 24 29 11 1 4 3 2 3 3 3 2 1 3 5 4 2 1 2 2 2 3 3 3 3 5 9 9 5 7 7 6 6 5 4 7 10 12 13 9 4 4 2 2 2 2 2 1 3 4 4 5 3 3 2 4 4 7 9 10 10 7 4 6 9 8 6 11 11 6 3 3 3 3 2 4 6 7 8 8 9 11 10 9 11
3 4 4 2 15 20 8 3 5 5 3 3 3 3 2 1 3 6 6 4 2 2 3 3 3 2 3 4 6 10 10 5 6 7 4 4 3 2 10 15 13 11 7 4 5 6 4 3 3 3 1 2 2 1 1 1 2 1 2 4 6 8 10 10 5 2 4 9 11 10 10 10 7 2 3 5 4 3 3 4 6 7 7 9 9 8 9 9
4 3 1 3 2 6 5 2 4 4 5 5 5 6 3 1 1 2 4 4 1 3 4 2 2 3 4 5 5 8 8 3 4 6 3 2 2 0 8 15 14 10 5 3 5 7 5 3 5 6 5 5 5 3 2 2 3 1 2 4 5 7 9 9 6 7 8 9 11 10 9 9 9 3 2 5 6 4 5 6 4 6 7 8 7 8 9 8
5 2 2 2 4 2 1 1 3 4 5 6 5 5 5 4 1 1 1 3 2 2 4 1 2 5 5 7 7 7 7 1 1 5 5 3 2 1 5 12 11 6 4 6 8 6 2 2 5 7 8 9 6 2 3 3 3 2 3 5 4 4 6 6 5 6 7 7 10 11 9 10 15 16 10 3 4 3 5 6 5 6 7 8 8 8 8 7
4 2 3 3 1 1 1 1 3 5 6 7 4 5 6 5 2 1 1 1 2 2 4 2 2 4 7 10 8 6 8 3 2 6 6 3 2 0 2 7 7 4 5 8 7 4 3 2 6 8 11 13 10 5 5 5 4 5 6 7 8 6 5 7 8 5 4 5 10 9 7 10 17 21 15 3 4 5 6 6 6 6 7 7 7 8 8 9
3 2 1 1 1 3 1 3 6 5 7 7 3 5 9 7 5 4 1 1 0 1 2 2 3 6 10 12 8 6 8 3 2 4 4 3 3 3 3 4 5 3 4 5 4 4 3 3 5 7 12 14 9 5 7 7 6 7 10 12 13 11 11 12 13 9 4 5 5 4 7 9 12 15 11 4 5 6 7 7 8 7 7 7 8 9 10 11
3 3 1 2 2 2 2 4 7 8 8 6 3 5 9 10 8 4 1 3 2 2 1 4 7 7 10 11 8 8 9 7 4 5 4 5 5 4 4 4 4 3 4 4 3 2 2 3 5 7 11 12 6 5 7 7 5 6 9 11 11 12 13 14 14 11 10 9 4 3 10 11 9 13 12 4 2 5 6 6 8 9 9 9 9 10 10 11
3 3 2 2 3 2 3 4 7 8 6 3 3 5 8 10 9 2 1 2 5 4 3 7 10 8 9 10 8 10 13 11 9 8 8 9 6 4 4 3 3 4 5 4 3 1 1 3 5 6 7 9 7 7 7 8 8 7 7 8 8 8 9 11 10 7 6 7 5 5 7 10 9 11 13 7 3 4 4 4 6 9 9 10 10 11 11 12
2 2 4 5 3 3 4 4 5 7 5 3 3 5 7 11 9 4 1 1 4 4 5 9 11 7 4 7 8 10 11 7 7 10 13 12 9 7 5 3 5 7 5 4 3 1 2 2 2 4 4 5 7 10 9 8 9 10 9 9 10 8 7 7 7 7 7 7 5 4 4 7 7 9 15 15 9 5 6 6 6 8 9 9 10 11 11 11
3 2 3 5 4 2 4 4 4 5 4 2 2 3 5 7 6 4 3 1 1 1 2 8 13 7 4 7 8 8 8 6 5 7 8 6 5 6 4 5 9 10 7 5 3 2 4 3 1 3 4 2 4 9 9 7 6 8 9 12 14 10 5 4 4 7 9 7 6 5 6 6 6 7 13 18 15 9 9 7 6 7 8 7 9 11 11 10
Wind_Direction
229 231 232 235 237 235 233 232 234 235 235 236 236 236 237 235 233 234 230 226 226 225 225 227 224 220 220 224 226 228 229 226 228 216 217 231 228 221 193 206 221 228 243 257 282 307 306 316 313 41 41 24 3 325 344 3 67 70 87 134 210 185 192 190 182 192 170 108 227 238 191 156 185 207 181 79 62 70 38 309 311 301 276 237 282 313 158 162
228 229 229 232 234 235 232 231 232 234 235 236 236 235 236 235 233 233 231 227 224 224 225 226 225 219 217 220 222 225 222 229 234 226 231 237 234 226 212 198 202 217 232 246 271 306 318 307 348 83 59 46 336 342 336 334 92 100 117 172 226 190 208 205 176 186 174 111 175 224 218 178 191 171 154 181 219 86 161 267 335 316 275 286 323 151 156 161
228 228 228 230 232 232 232 231 232 233 234 235 236 235 236 236 233 231 232 229 225 224 224 225 225 220 218 216 216 219 217 233 241 240 242 239 234 229 216 210 209 210 219 232 257 291 276 278 207 104 63 13 289 358 352 311 202 155 136 198 241 205 234 243 185 193 205 148 154 203 196 204 218 163 158 179 173 164 195 223 230 255 246 246 179 156 159 163
227 226 227 229 230 230 231 231 232 233 233 235 235 234 235 236 234 231 231 229 226 225 223 225 224 220 219 212 209 204 201 249 250 245 249 240 232 231 219 213 214 218 224 232 241 259 317 288 137 85 83 202 319 20 193 263 214 160 150 198 234 187 218 247 210 207 213 178 147 148 127 205 233 173 167 152 137 233 237 223 203 215 215 191 188 173 167 167
225 225 225 227 229 230 231 230 231 233 232 233 233 233 233 234 234 232 230 229 227 224 223 225 224 221 215 207 202 183 150 283 250 241 252 239 230 229 219 212 211 218 226 232 233 216 272 29 98 70 74 180 344 47 235 245 130 160 206 199 201 142 193 252 217 194 153 114 105 117 147 188 171 164 176 159 166 228 230 216 210 215 195 172 178 175 173 177
224 224 224 225 227 228 229 229 230 232 232 231 231 231 231 232 233 231 229 228 227 224 223 224 225 223 214 203 195 180 163 222 231 179 281 238 225 223 213 207 207 215 220 216 204 172 150 70 79 112 105 157 179 191 241 251 108 217 256 229 214 170 198 250 197 195 142 109 120 160 199 137 124 245 199 174 204 224 213 206 216 218 178 165 166 166 175 186
224 224 223 224 224 226 228 229 230 230 230 229 229 230 229 230 230 230 229 227 227 223 222 223 225 226 214 200 193 188 193 227 231 53 4 278 221 217 207 202 204 210 210 195 171 151 143 129 168 165 128 151 199 212 231 54 66 228 256 269 239 197 213 227 106 129 131 137 201 177 114 154 179 232 161 192 233 230 218 222 218 187 156 154 159 172 186 190
223 223 222 222 222 224 226 228 229 228 229 228 227 229 228 229 228 228 227 226 226 222 222 222 224 224 207 194 191 197 209 221 226 237 354 356 217 212 201 195 200 201 198 192 176 164 153 153 181 172 145 200 196 194 197 108 55 223 228 243 245 217 239 261 278 316 249 231 265 106 202 235 200 198 205 222 243 239 211 95 119 137 139 156 174 185 194 194
222 222 220 221 220 222 225 227 228 227 228 227 226 227 227 228 227 227 226 225 225 221 221 221 224 223 208 196 189 226 214 212 222 233 280 337 209 204 194 188 193 194 190 195 188 173 161 168 190 181 174 199 178 179 189 183 226 222 206 201 212 252 264 294 273 283 306 250 282 147 252 264 227 230 270 233 231 225 127 95 117 135 151 180 189 191 194 197
219 220 219 219 218 220 223 226 227 226 226 226 224 225 225 226 226 226 225 224 224 221 220 220 222 217 210 200 194 231 213 209 220 229 247 287 184 192 190 188 189 189 185 187 186 176 168 182 181 160 154 167 165 177 182 182 213 213 187 195 218 252 293 66 286 308 331 235 193 207 250 275 313 258 253 237 210 161 113 121 149 155 181 195 199 200 198 203
216 217 218 216 216 218 220 224 227 226 224 223 223 223 224 226 226 225 224 223 223 221 219 219 220 215 214 209 209 220 163 205 220 226 236 248 195 190 190 192 189 186 183 177 186 183 181 182 159 129 156 169 155 167 212 199 200 162 154 228 252 262 288 254 282 288 277 265 187 183 253 288 14 248 229 189 163 154 139 161 174 181 203 205 206 206 202 215
216 215 217 215 215 216 218 222 225 225 223 221 221 221 222 225 226 225 223 222 221 222 219 217 219 215 217 236 239 216 168 207 217 221 228 229 211 197 194 195 191 189 185 175 186 186 185 182 156 149 207 160 133 164 234 208 164 123 147 258 276 288 282 235 248 237 169 229 182 155 287 269 213 236 224 123 129 153 157 180 192 202 214 212 212 212 209 221
217 215 215 214 213 214 216 219 222 224 222 220 219 219 220 222 225 225 223 222 220 220 217 215 217 213 214 245 247 217 206 216 216 214 216 214 209 197 194 196 193 194 192 185 182 179 183 184 169 169 183 135 154 207 117 125 121 144 163 230 269 286 278 225 200 153 166 210 160 144 273 242 222 238 230 165 143 143 172 206 210 213 219 220 215 216 221 223
217 215 213 213 213 213 215 217 220 223 221 219 217 217 219 220 222 222 223 222 217 218 217 213 209 205 214 240 258 223 215 214 209 205 201 196 185 176 189 194 192 192 192 190 174 164 168 168 160 146 113 128 169 171 54 34 86 162 203 193 226 238 270 253 199 154 178 231 139 153 250 249 247 250 233 220 177 159 199 222 217 217 220 224 219 221 229 226
216 213 211 212 212 212 214 215 218 221 219 217 215 216 217 218 219 220 223 221 216 216 212 210 202 186 223 253 262 236 220 209 201 205 203 193 172 158 182 186 186 186 183 179 162 152 148 144 135 127 163 208 120 116 65 347 354 154 215 208 186 218 265 301 240 167 183 238 131 162 234 259 259 261 234 214 196 183 211 226 224 223 221 223 226 225 232 236
214 212 209 209 210 211 212 213 216 218 217 214 213 215 214 217 218 219 224 217 215 214 203 206 198 183 252 241 205 215 211 199 201 207 203 196 184 164 165 168 172 173 169 167 158 150 140 133 116 136 142 117 145 128 94 268 255 215 217 213 170 196 234 294 278 200 193 198 177 200 228 258 256 267 262 225 205 202 220 236 236 233 230 227 229 231 234 242
212 210 207 208 209 208 209 210 214 215 215 211 208 209 210 215 216 220 227 218 215 209 200 198 175 174 275 231 166 190 185 187 199 204 195 194 194 170 151 145 144 142 135 143 154 149 142 146 133 163 119 120 153 129 161 221 227 209 207 222 208 160 190 227 274 244 209 205 218 215 229 243 238 261 298 268 209 208 226 240 241 240 241 234 232 237 239 239
209 208 206 206 207 206 207 209 211 213 211 205 202 205 206 211 215 219 225 216 209 195 199 199 152 159 258 225 201 183 169 181 195 199 191 188 190 174 155 141 131 131 123 121 153 153 155 168 166 178 159 183 174 171 202 219 211 205 205 210 218 151 195 206 225 224 199 217 234 216 232 248 247 253 271 268 188 196 228 242 251 256 253 249 243 243 244 242
207 207 204 204 205 204 205 206 208 211 206 198 195 192 193 203 219 223 215 199 188 182 198 193 167 173 253 210 192 141 162 174 183 190 180 173 176 167 152 142 138 141 143 148 184 172 154 135 151 186 198 203 198 199 208 194 135 201 199 185 202 216 223 214 231 228 185 204 238 225 233 247 248 245 244 252 210 197 236 256 267 265 259 258 252 248 248 245
206 204 203 203 203 202 202 202 206 208 200 190 183 173 173 179 194 217 203 193 202 212 176 175 190 190 10 200 161 135 148 159 167 178 173 168 157 148 139 139 142 153 164 166 175 165 165 178 194 205 206 204 201 206 213 204 113 165 174 189 207 218 233 216 231 249 185 199 236 224 232 248 251 246 236 240 229 227 248 257 260 258 256 255 251 253 251 247
205 201 201 201 200 199 199 199 202 204 196 187 179 168 177 178 174 199 184 198 216 221 347 191 200 202 15 349 148 140 130 139 174 171 173 172 155 149 159 155 155 177 182 161 135 140 178 201 215 214 207 201 202 205 212 216 216 83 160 203 213 218 231 216 220 232 179 202 248 229 235 250 253 250 240 232 225 234 239 240 250 252 252 254 253 256 257 256
202 199 199 198 198 196 196 197 200 201 193 186 182 185 219 194 186 108 161 180 228 216 315 238 204 208 59 10 179 163 131 157 191 177 171 173 166 169 178 169 172 182 178 150 127 154 189 218 221 212 199 200 207 204 206 217 222 237 230 220 223 213 219 233 223 195 171 201 246 241 239 250 255 250 239 233 226 232 233 229 237 244 249 251 250 253 256 260
199 196 196 197 195 193 192 194 198 196 187 185 190 195 209 200 202 132 149 163 267 199 223 211 202 204 152 59 221 205 175 166 180 181 173 174 178 177 170 176 184 179 171 166 166 173 196 225 218 187 180 204 206 193 192 207 223 228 223 221 231 171 166 231 226 181 191 205 231 257 258 256 262 262 245 230 226 234 236 229 233 238 244 248 247 249 251 252
197 193 195 195 192 191 189 190 192 192 188 190 198 199 190 194 205 204 134 138 258 201 196 196 203 199 169 144 176 182 203 186 170 179 177 178 175 166 172 181 183 181 179 180 180 189 212 220 166 163 192 200 192 173 180 193 217 223 219 219 217 154 183 220 190 181 226 260 257 287 284 267 248 256 254 231 219 233 237 231 236 240 240 248 250 248 248 246
193 191 193 191 191 189 183 183 190 192 191 195 202 201 188 184 202 200 130 43 236 262 197 182 224 207 174 150 166 165 189 216 212 174 172 184 184 157 178 184 181 187 183 182 183 201 222 187 144 185 194 171 179 186 188 194 211 224 219 214 202 160 184 179 139 99 12 287 257 145 270 272 230 241 250 233 213 228 239 233 235 241 239 244 250 248 247 246
190 190 190 188 188 182 175 183 196 190 188 200 204 195 185 183 191 183 141 9 230 203 178 171 172 186 174 165 152 123 179 215 278 156 163 185 200 182 189 178 183 194 178 179 189 205 216 176 162 188 170 162 190 202 196 191 204 231 209 193 198 178 150 139 126 99 5 273 284 170 246 275 267 249 246 237 226 223 235 237 232 238 239 238 245 246 247 248
187 188 187 186 184 177 172 180 187 184 185 203 197 187 185 185 172 159 146 274 225 146 156 171 177 177 172 167 148 138 197 176 82 157 169 182 189 285 224 178 173 192 169 167 203 197 182 177 174 175 169 180 196 205 198 186 200 235 155 164 194 192 138 116 103 103 239 293 295 220 225 276 271 261 244 235 241 232 230 240 235 232 234 235 241 244 244 247
186 186 184 185 184 181 179 164 169 181 188 178 180 183 184 175 153 137 172 246 202 129 148 170 161 158 151 152 156 166 235 142 148 209 157 175 179 172 247 200 186 183 169 171 198 194 177 182 184 177 182 195 199 201 180 173 201 227 145 162 185 188 163 114 95 105 8 355 277 243 116 275 268 254 213 220 238 238 229 235 240 234 232 232 239 245 245 245
185 184 183 184 184 185 183 171 174 185 173 158 171 180 171 153 137 123 238 232 152 88 164 161 145 136 134 152 171 187 289 116 181 181 109 166 173 113 234 227 214 190 177 186 201 195 183 191 187 180 190 196 179 158 152 174 201 184 138 141 151 175 178 152 134 143 16 335 255 243 160 243 270 233 166 204 232 239 229 230 240 237 234 232 234 243 243 244
182 182 182 181 181 182 180 180 183 176 160 157 164 162 148 134 127 195 229 226 93 74 200 164 165 156 151 157 181 192 181 118 102 112 122 156 147 146 159 286 246 206 183 199 211 207 170 180 176 178 194 177 145 151 169 180 174 122 106 93 99 141 138 109 123 136 258 256 249 242 194 206 269 246 173 199 214 215 204 220 243 240 239 236 228 236 240 241
181 181 182 181 181 180 175 175 175 169 161 157 153 145 134 127 167 205 219 263 60 190 187 153 162 157 157 162 177 187 183 150 133 150 151 135 154 164 164 182 228 214 183 196 212 214 165 151 153 178 179 141 132 159 174 163 153 136 118 115 117 60 79 99 95 148 209 239 249 247 209 202 253 246 171 221 250 184 193 208 228 233 239 241 232 233 238 240
180 180 182 182 181 180 179 172 166 163 158 153 147 137 141 177 208 218 216 64 53 212 174 155 163 161 164 169 174 175 174 167 155 161 157 163 174 171 185 200 198 211 198 186 194 201 200 179 164 167 159 146 147 141 82 141 163 160 140 149 166 183 180 190 201 188 212 238 248 227 180 209 247 255 252 261 256 227 214 211 221 231 238 245 242 237 238 243
179 178 181 182 180 179 181 177 169 162 153 148 142 137 175 200 210 214 209 123 225 222 152 159 165 158 163 169 174 170 171 175 159 156 156 169 189 190 198 200 137 59 218 183 184 190 202 208 176 157 151 163 167 162 164 172 178 178 165 171 184 183 196 207 212 205 220 242 253 79 126 232 265 272 254 241 240 227 216 213 218 227 233 243 249 251 256 261
178 177 179 180 180 180 180 179 175 166 154 144 138 156 185 218 203 196 209 216 264 195 121 156 157 153 167 172 171 165 169 185 164 156 150 159 189 195 198 205 170 64 336 195 191 179 193 214 182 170 166 170 179 184 179 165 175 187 173 176 187 184 204 209 206 211 223 245 236 108 169 211 230 254 166 198 248 242 218 220 228 239 245 258 275 283 277 268
174 175 176 173 174 180 182 179 170 163 154 142 147 170 193 211 191 191 204 196 245 205 112 144 149 152 172 171 167 172 174 181 161 156 155 164 194 193 185 200 179 153 270 217 211 185 203 223 177 176 172 167 181 190 165 142 166 192 158 177 203 201 203 207 199 201 199 240 217 187 227 223 236 269 245 204 306 344 230 237 269 274 269 268 278 275 264 259
167 169 171 166 170 179 182 176 165 158 152 142 165 188 207 204 194 193 178 152 177 157 122 135 149 152 171 154 167 183 174 54 157 166 187 181 204 194 172 181 173 169 183 197 303 199 208 226 172 171 171 176 184 180 166 165 168 176 179 194 210 202 181 188 262 187 122 222 226 204 244 266 281 281 266 242 248 246 216 214 213 233 243 244 256 261 259 259
158 160 163 163 172 179 177 170 163 158 155 154 183 201 207 213 200 165 162 144 150 148 137 153 170 166 170 152 174 182 164 107 166 177 188 179 203 190 168 169 170 174 183 180 323 294 191 233 176 169 179 190 185 170 176 186 163 160 194 190 156 76 133 154 248 231 115 229 230 205 228 238 245 265 275 223 229 224 209 206 207 218 231 238 249 257 257 255
150 152 151 163 176 181 174 165 160 156 154 160 197 208 197 216 202 164 165 147 142 153 161 168 171 171 172 166 175 175 167 172 176 179 182 177 204 186 170 172 170 177 183 170 184 312 209 347 198 186 188 182 166 163 184 205 189 172 191 175 144 158 189 181 209 221 208 232 246 227 231 231 223 244 268 179 216 218 207 204 205 216 227 234 245 254 258 259
141 145 141 168 178 181 172 164 157 155 164 177 201 208 189 211 218 190 170 150 142 164 174 174 161 167 176 175 168 164 173 183 172 172 186 184 211 195 175 169 165 177 176 164 173 265 341 123 263 225 191 155 154 176 183 196 217 314 146 171 176 192 199 195 201 213 213 224 245 245 242 232 224 242 250 231 211 202 197 199 205 214 218 219 224 236 249 255
133 134 110 168 176 175 165 159 155 166 179 197 207 198 160 202 243 213 178 157 145 184 183 177 157 164 171 166 160 162 172 180 172 178 193 182 196 226 184 165 154 163 163 158 166 162 30 209 242 315 184 161 171 190 188 190 196 197 179 180 187 194 215 214 206 212 221 224 234 248 252 241 226 238 234 219 211 196 186 192 204 211 214 216 217 220 231 242
118 123 69 165 169 166 159 154 162 181 176 198 200 163 163 191 204 201 191 154 122 223 193 147 147 162 164 151 159 167 160 165 175 179 196 193 198 233 203 170 156 150 146 149 166 167 156 192 188 224 197 189 183 148 175 200 191 191 199 189 189 191 183 200 212 209 218 224 209 232 254 253 236 218 205 203 207 199 192 197 203 209 216 221 221 222 230 243
117 141 21 165 164 159 154 152 160 156 188 194 164 127 162 177 144 182 203 138 111 150 92 96 121 141 151 146 158 164 158 167 176 177 198 207 209 217 193 164 155 154 151 150 167 166 120 114 177 224 209 233 254 73 70 15 49 223 237 208 202 202 188 199 212 199 202 218 210 231 254 258 254 219 211 215 219 208 202 201 202 213 223 230 234 236 243 254
124 138 31 124 164 160 151 194 155 145 222 185 118 84 94 144 146 165 195 212 165 154 110 108 139 148 159 150 151 165 170 176 177 184 197 202 226 226 167 150 153 160 157 147 146 130 85 115 182 242 270 286 303 39 53 32 29 312 268 228 218 213 206 216 220 191 204 213 209 231 250 257 262 226 215 267 276 227 211 205 207 220 232 238 241 242 244 250
105 117 41 86 167 168 169 197 177 173 180 131 99 105 54 2 163 166 182 195 208 168 146 150 165 159 160 150 151 170 175 173 184 192 182 182 231 220 158 155 158 167 176 177 170 177 183 161 170 204 253 294 284 327 359 44 119 202 244 247 244 225 221 230 230 238 237 212 207 220 237 253 257 169 73 356 351 355 304 249 223 226 236 242 246 248 249 252
109 90 44 53 124 170 177 190 164 155 154 137 138 148 131 69 216 195 176 167 194 164 143 159 168 112 119 133 132 164 171 148 181 184 159 166 225 301 164 167 168 177 193 172 154 170 183 168 169 188 211 223 221 226 238 179 141 166 226 248 260 243 231 233 226 229 230 211 211 224 234 256 266 260 20 5 7 350 314 300 279 255 253 259 262 259 260 262
130 70 144 95 14 21 48 24 122 132 147 145 142 153 150 145 190 295 148 154 201 143 98 76 128 93 106 136 130 161 177 90 67 171 163 173 204 288 185 176 177 183 159 139 143 148 153 193 191 197 214 225 220 145 101 109 120 149 190 200 220 252 264 269 250 233 236 226 224 227 228 249 264 262 257 297 9 329 293 295 291 273 266 266 264 266 276 278
129 111 153 132 59 131 28 4 148 150 164 162 156 160 158 157 165 145 65 194 208 145 82 60 145 139 153 153 141 166 174 114 66 164 160 162 192 275 156 172 188 190 142 147 155 127 95 219 212 211 228 238 237 200 153 156 183 201 210 217 223 229 245 259 255 262 316 274 237 235 236 237 250 258 258 281 8 335 307 302 296 286 281 280 285 295 296 288
132 124 156 86 101 165 187 190 174 162 162 165 159 157 163 169 170 165 143 58 227 182 84 101 189 188 171 161 150 157 162 131 86 160 154 152 161 129 115 169 205 200 140 149 168 130 125 214 207 205 233 246 244 199 175 184 204 215 221 229 231 221 211 225 240 244 249 245 243 305 301 264 257 273 288 359 19 336 319 310 306 312 316 319 320 308 290 281
124 96 48 26 60 130 112 141 156 153 153 160 161 166 171 173 173 180 116 107 178 238 147 160 193 192 173 166 150 149 166 168 170 189 182 163 159 141 134 168 201 191 143 142 175 163 154 214 193 190 230 244 226 171 175 182 189 204 214 217 218 213 207 213 227 225 216 223 221 275 291 288 280 282 293 334 357 310 316 326 323 322 322 320 315 303 290 283
145 133 138 91 71 96 96 117 147 153 153 162 175 178 177 174 173 177 35 134 178 200 186 179 181 173 168 168 157 168 185 182 175 183 171 156 162 171 166 172 167 158 152 149 173 229 215 207 180 171 223 241 214 188 182 178 191 212 212 200 194 198 201 209 217 207 202 225 207 187 262 283 279 282 293 294 275 293 320 333 314 303 303 305 305 304 300 300
130 145 140 114 93 117 126 127 146 157 165 185 185 177 176 178 172 143 114 195 181 189 202 176 159 147 151 159 167 184 187 181 179 177 169 167 173 169 171 182 153 148 156 153 149 182 202 198 149 158 213 237 202 194 193 186 206 223 215 197 193 192 192 199 200 188 189 199 181 169 236 263 270 297 303 297 290 298 294 274 263 275 284 291 296 298 297 300
93 75 103 102 97 123 143 141 150 163 171 181 172 165 168 170 153 124 150 208 10 315 235 165 151 142 138 160 189 200 178 171 183 165 156 162 150 131 137 157 153 154 163 160 141 148 170 168 139 178 210 245 179 181 183 182 207 227 217 203 200 197 188 182 191 197 197 181 168 199 231 245 259 278 287 289 294 298 284 263 238 256 272 282 291 294 292 290